[[{"header":{"parameterUnit":"m.s-1","parameterCategory":1,"la1":30.2991,"la2":30.254,"lo1":-89.0895,"lo2":-89.0444,"dy":0.0017,"dx":0.0017,"nx":28,"ny":28,"refTime":"2024-05-21T09:00:00:Z","depth":0,"parameterNumber":2,"parameterNumberName":"U-component_of_WINDS"},"data":[0,0,0,0,0,0,0,0,0,0,0,0,0,0,0,0,0,0,0,0,0,0,0,0,0,0,0,0,0,0,0,0,0,0,0,0,0,0,0,0,0,0,0,0,0,0,0,0,0,0,0,0,0,0,0,0,0,0,-2.1117,-2.1118,0,-2.1241,-2.1242,-2.1244,-2.1274,-2.1273,-2.1273,-2.1272,-2.1398,-2.1402,-2.1406,0,0,0,0,0,0,0,0,0,0,0,0,0,-2.0906,-2.0909,-2.1116,-2.1118,-2.1119,-2.1241,-2.1242,-2.1244,-2.1274,-2.1273,-2.1272,-2.1272,-2.1397,-2.1402,-2.1407,0,0,0,0,0,0,0,0,0,0,0,0,0,-2.101,-2.0911,-2.1116,-2.1149,-2.1154,-2.124,-2.1242,-2.1244,-2.1275,-2.1273,-2.1272,-2.1271,-2.1395,-2.1401,-2.1407,-2.147,0,0,-2.1426,-2.1429,0,0,0,0,0,0,0,0,-2.1004,-2.1018,-2.1143,-2.1147,-2.1152,-2.1241,-2.1214,-2.132,-2.1275,-2.1229,-2.1272,-2.127,-2.1347,-2.1357,-2.1383,-2.1476,-2.1481,-2.1427,-2.1431,-2.1433,-2.1435,0,0,0,0,0,0,0,-2.0997,-2.1013,-2.1166,-2.1145,-2.115,-2.1158,-2.1172,-2.1235,-2.1293,-2.1233,-2.1235,-2.1249,-2.1349,-2.1377,-2.1386,-2.1483,-2.1427,-2.1432,-2.1436,-2.1438,-2.1634,-2.1635,0,0,0,0,0,0,-2.0984,-2.1007,-2.1162,-2.1169,-2.1074,-2.1163,-2.1178,-2.1213,-2.1292,-2.1303,-2.125,-2.125,-2.1367,-2.1379,-2.1391,-2.1469,-2.1433,-2.1439,-2.1443,-2.1632,-2.1634,-2.1636,0,0,0,0,0,0,-2.0979,-2.0998,-2.1157,-2.1089,-2.111,-2.1168,-2.1207,-2.1217,-2.1244,-2.1306,-2.1316,-2.1268,-2.1366,-2.1382,-2.145,-2.1474,-2.1442,-2.1447,-2.1631,-2.1633,-2.1635,-2.1626,0,0,0,0,0,0,-2.0973,-2.0996,-2.102,-2.1089,-2.1113,-2.1214,-2.1209,-2.122,-2.1255,-2.1256,-2.1325,-2.1335,-2.1367,-2.1441,-2.1456,-2.1482,-2.1452,-2.1629,-2.1632,-2.1634,-2.1624,-2.1627,-2.163,0,0,0,0,0,-2.0966,-2.1012,-2.1021,-2.1039,-2.1144,-2.1215,-2.1229,-2.1264,-2.1257,-2.1282,-2.1321,-2.1333,-2.1469,-2.1447,-2.1465,-2.1493,-2.1627,-2.1631,-2.1634,-2.1623,-2.1627,-2.163,0,0,0,0,0,0,-2.0943,-2.1021,-2.1032,-2.1102,-2.1152,-2.122,-2.1252,-2.1267,-2.132,-2.1318,-2.136,-2.1375,-2.1441,-2.1474,-2.1449,-2.1558,-2.1548,-2.1555,-2.1533,-2.1538,-2.1541,-2.1531,-2.1457,0,0,0,0,0,-2.0947,-2.0998,-2.1063,-2.1119,-2.1143,-2.1193,-2.1226,-2.1249,-2.1302,-2.1323,-2.1367,-2.1418,-2.1472,-2.1507,-2.156,-2.163,-2.1645,-2.1657,-2.166,-2.1663,-2.1668,-2.1707,-2.1714,-2.1647,-2.1647,-2.1647,0,0,-2.0954,-2.1003,-2.1032,-2.1115,-2.1157,-2.1208,-2.1211,-2.1265,-2.1304,-2.1331,-2.1398,-2.1433,-2.1492,-2.1561,-2.1594,-2.1591,-2.169,-2.1667,-2.1668,-2.1672,-2.1711,-2.1718,-2.1723,-2.1649,-2.1649,-2.1648,0,0,-2.0993,-2.1035,-2.1086,-2.1128,-2.119,-2.1224,-2.1236,-2.1303,-2.1327,-2.1395,-2.1416,-2.1463,-2.1556,-2.1598,-2.1631,-2.1688,-2.1701,-2.1704,-2.1719,-2.1757,-2.1762,-2.1767,-2.1787,-2.1794,-2.1709,-2.1709,-2.1709,0,-2.0994,-2.1073,-2.1111,-2.1165,-2.1201,-2.1228,-2.128,-2.1319,-2.1395,-2.1419,-2.1415,-2.1532,-2.1574,-2.1654,-2.1668,-2.1694,-2.1709,-2.1696,-2.1759,-2.1764,-2.1769,-2.1789,-2.1796,-2.1709,-2.1709,-2.1709,-2.1709,0,-2.1071,-2.1125,-2.1159,-2.1233,-2.1273,-2.1326,-2.1372,-2.1408,-2.1428,-2.1462,-2.1531,-2.1583,-2.1648,-2.1669,-2.1688,-2.1751,-2.1747,-2.175,-2.1741,-2.1775,-2.1794,-2.1802,-2.1709,-2.1709,-2.1709,-2.1709,0,0,-2.1098,-2.1193,-2.1205,-2.1239,-2.1311,-2.1354,-2.1408,-2.1472,-2.1502,-2.1554,-2.1601,-2.1679,-2.1683,-2.172,-2.1746,-2.1779,-2.1821,-2.1778,-2.178,-2.1784,-2.1893,-2.189,-2.1898,-2.1831,-2.1832,-2.1833,-2.1888,0,-2.1146,-2.1244,-2.128,-2.136,-2.1411,-2.1439,-2.1486,-2.1536,-2.1569,-2.1618,-2.1655,-2.171,-2.1711,-2.1734,-2.1768,-2.1808,-2.1843,-2.1805,-2.1874,-2.1876,-2.1857,-2.1908,-2.1905,-2.1954,-2.1896,-2.1897,-2.1898,0,-2.1214,-2.1268,-2.1353,-2.142,-2.1442,-2.1484,-2.1546,-2.1592,-2.1649,-2.1671,-2.1714,-2.1737,-2.1795,-2.1784,-2.1865,-2.1838,-2.1869,-2.1893,-2.1896,-2.1903,-2.1888,-2.1916,-2.197,-2.1977,-2.191,-2.1909,-2.1909,0,-2.1225,-2.1319,-2.1382,-2.1411,-2.149,-2.1519,-2.1553,-2.1608,-2.1645,-2.1699,-2.1723,-2.1782,-2.1815,-2.1861,-2.19,-2.1888,-2.1978,-2.1969,-2.1997,-2.1996,-2.2014,-2.2012,-2.2073,-2.2035,-2.2035,-2.2035,-2.2035,0,-2.1275,-2.1326,-2.1388,-2.1427,-2.1486,-2.1527,-2.1584,-2.162,-2.1669,-2.1716,-2.1744,-2.1787,-2.1836,-2.1886,-2.1917,-2.1979,-2.1994,-2.2013,-2.2021,-2.201,-2.2008,-2.203,-2.2028,-2.2037,-2.2036,-2.2036,-2.2036,0,-2.1296,-2.134,-2.1411,-2.148,-2.1499,-2.1539,-2.1598,-2.1637,-2.1673,-2.1731,-2.1747,-2.1803,-2.1863,-2.1907,-2.1984,-2.2005,-2.2072,-2.2079,-2.2052,-2.2056,-2.2082,-2.2078,-2.2159,-2.2171,-2.2125,-2.2125,-2.2125,0,-2.1324,-2.1364,-2.1438,-2.1471,-2.1505,-2.1559,-2.1596,-2.1639,-2.1677,-2.1745,-2.1776,-2.1838,-2.1889,-2.1984,-2.2031,-2.2091,-2.21,-2.2124,-2.2109,-2.2098,-2.21,-2.2097,-2.2101,-2.2126,-2.2126,-2.2126,-2.2126,0,-2.137,-2.139,-2.1442,-2.1503,-2.1547,-2.1596,-2.1647,-2.1672,-2.1724,-2.1765,-2.1827,-2.1867,-2.1947,-2.2008,-2.2073,-2.2108,-2.2126,-2.2131,-2.2141,-2.213,-2.2113,-2.2122,-2.2057,-2.2129,-2.2129,-2.2128,-2.2128,-2.2128,-2.1395,-2.1432,-2.149,-2.1548,-2.159,-2.1637,-2.1677,-2.1718,-2.177,-2.1838,-2.1861,-2.1925,-2.1981,-2.207,-2.2106,-2.2157,-2.2156,-2.217,-2.2174,-2.2176,-2.2176,-2.2105,-2.2169,-2.2169,-2.2169,-2.2169,-2.2169,0,-2.1442,-2.148,-2.1533,-2.1603,-2.1649,-2.1662,-2.1719,-2.1756,-2.1812,-2.1864,-2.1914,-2.1986,-2.2045,-2.2098,-2.216,-2.2191,-2.2201,-2.2205,-2.2203,-2.2211,-2.2173,-2.2158,-2.2196,-2.2196,-2.2196,-2.2196,-2.2196,-2.2196,-2.1471,-2.1535,-2.1562,-2.1647,-2.1685,-2.1748,-2.1779,-2.1823,-2.1864,-2.1942,-2.1992,-2.2026,-2.2078,-2.2145,-2.22,-2.2214,-2.2236,-2.2239,-2.2254,-2.2217,-2.2214,-2.2211,-2.2197,-2.2243,-2.2243,-2.2289,-2.2289,-2.229]},{"header":{"parameterUnit":"m.s-1","parameterCategory":1,"la1":30.2991,"la2":30.254,"lo1":-89.0895,"lo2":-89.0444,"dy":0.0017,"dx":0.0017,"nx":28,"ny":28,"refTime":"2024-05-21T09:00:00:Z","depth":0,"parameterNumber":3,"parameterNumberName":"V-component_of_WINDS"},"data":[0,0,0,0,0,0,0,0,0,0,0,0,0,0,0,0,0,0,0,0,0,0,0,0,0,0,0,0,0,0,0,0,0,0,0,0,0,0,0,0,0,0,0,0,0,0,0,0,0,0,0,0,0,0,0,0,0,0,6.1682,6.1682,0,6.1757,6.1758,6.1759,6.1689,6.1686,6.1683,6.1681,6.1752,6.1756,6.1761,0,0,0,0,0,0,0,0,0,0,0,0,0,6.1471,6.1475,6.1681,6.1682,6.1683,6.1757,6.1758,6.1759,6.1689,6.1686,6.1683,6.1679,6.1751,6.1756,6.1761,0,0,0,0,0,0,0,0,0,0,0,0,0,6.1556,6.1476,6.1681,6.1658,6.1656,6.1757,6.1758,6.1759,6.169,6.1686,6.1682,6.1678,6.1749,6.1755,6.1762,6.1887,0,0,6.1783,6.1786,0,0,0,0,0,0,0,0,6.1551,6.1564,6.166,6.166,6.1658,6.1709,6.171,6.1802,6.1691,6.1677,6.1681,6.1676,6.1741,6.1748,6.1771,6.1891,6.1894,6.1783,6.1787,6.179,6.1792,0,0,0,0,0,0,0,6.1545,6.156,6.1711,6.1662,6.1661,6.1641,6.1649,6.1727,6.1731,6.1678,6.1673,6.1683,6.1739,6.1765,6.1772,6.1895,6.1783,6.1789,6.1793,6.1796,6.2119,6.2123,0,0,0,0,0,0,6.1543,6.1555,6.1709,6.1713,6.1593,6.1648,6.1657,6.1697,6.173,6.1732,6.1687,6.168,6.1755,6.1764,6.1774,6.1922,6.179,6.1796,6.18,6.2115,6.212,6.2125,0,0,0,0,0,0,6.1538,6.1557,6.1706,6.1633,6.1651,6.1657,6.1702,6.1701,6.1726,6.1737,6.1737,6.1712,6.1752,6.1765,6.186,6.1923,6.18,6.1806,6.2109,6.2116,6.2123,6.2219,0,0,0,0,0,0,6.1533,6.1556,6.1605,6.1635,6.1655,6.1792,6.1706,6.1705,6.1739,6.173,6.1761,6.1762,6.175,6.185,6.1867,6.1931,6.1811,6.2103,6.2112,6.212,6.221,6.2228,6.2244,0,0,0,0,0,6.1525,6.1628,6.1608,6.1627,6.1717,6.1796,6.1807,6.1793,6.1744,6.1792,6.1799,6.1761,6.1915,6.186,6.1878,6.1945,6.2099,6.211,6.212,6.2203,6.2225,6.2243,0,0,0,0,0,0,6.1604,6.1632,6.161,6.1726,6.1759,6.1784,6.1844,6.1817,6.1863,6.1853,6.1832,6.1839,6.1939,6.1952,6.1891,6.2067,6.1999,6.2013,6.2055,6.2077,6.2093,6.2087,6.1817,0,0,0,0,0,6.1635,6.1699,6.1719,6.182,6.1838,6.1839,6.1872,6.1859,6.1892,6.1905,6.1919,6.195,6.2005,6.2042,6.2093,6.2212,6.2216,6.2267,6.2284,6.2298,6.2309,6.2371,6.2393,6.2158,6.2158,6.2158,0,0,6.1699,6.1723,6.1764,6.1836,6.186,6.1924,6.1851,6.1922,6.1969,6.1915,6.2005,6.2017,6.205,6.2158,6.2205,6.2171,6.2376,6.2311,6.2322,6.2326,6.2384,6.2406,6.2426,6.2165,6.2164,6.2163,0,0,6.1849,6.1875,6.196,6.1986,6.2025,6.2025,6.2045,6.2075,6.2081,6.2172,6.2132,6.2186,6.2282,6.2308,6.2333,6.2493,6.2458,6.251,6.2597,6.2658,6.2676,6.2692,6.2747,6.2768,6.2522,6.2522,6.2523,0,6.1924,6.2021,6.2007,6.2082,6.2113,6.207,6.2155,6.218,6.2233,6.2255,6.2216,6.2335,6.2355,6.2466,6.2506,6.2528,6.2549,6.2505,6.2675,6.2691,6.2706,6.2758,6.2779,6.2528,6.2528,6.2527,6.2527,0,6.211,6.2178,6.2242,6.2296,6.2335,6.2415,6.241,6.2451,6.2435,6.2438,6.253,6.2552,6.2607,6.2633,6.2616,6.2742,6.2719,6.2679,6.2608,6.2735,6.2783,6.2803,6.2537,6.2535,6.2533,6.2531,0,0,6.231,6.2356,6.2379,6.2403,6.2442,6.2493,6.257,6.2625,6.266,6.2697,6.2759,6.2842,6.2804,6.2833,6.2819,6.2873,6.2995,6.2825,6.2825,6.2854,6.3133,6.3162,6.3185,6.2974,6.2978,6.2981,6.3129,0,6.246,6.2595,6.2585,6.2712,6.2773,6.2732,6.2799,6.2829,6.2834,6.2885,6.289,6.2948,6.2895,6.2912,6.2964,6.297,6.3051,6.2959,6.3029,6.3031,6.302,6.3211,6.3242,6.3381,6.3148,6.3151,6.3154,0,6.2653,6.2699,6.2833,6.2862,6.2887,6.2947,6.2996,6.3047,6.3079,6.3079,6.3112,6.3089,6.3163,6.3094,6.3195,6.3133,6.3161,6.3168,6.3173,6.3177,6.3099,6.3218,6.3425,6.3445,6.3184,6.3181,6.3179,0,6.2783,6.2878,6.297,6.2992,6.3029,6.3072,6.3089,6.3117,6.3151,6.3193,6.3214,6.3265,6.3291,6.333,6.332,6.327,6.3423,6.3353,6.3423,6.3423,6.3455,6.3453,6.3667,6.3477,6.3476,6.3476,6.3476,0,6.295,6.3033,6.3029,6.3086,6.3177,6.3163,6.3252,6.3264,6.329,6.3346,6.3314,6.3366,6.3351,6.3403,6.3395,6.3479,6.3492,6.3492,6.3489,6.3494,6.3494,6.3511,6.35,6.3482,6.348,6.3479,6.3478,0,6.311,6.3112,6.3209,6.3237,6.3245,6.3311,6.3333,6.3385,6.3388,6.3459,6.3475,6.3479,6.3538,6.3533,6.3598,6.3593,6.3697,6.3683,6.3686,6.3683,6.3752,6.3745,6.3984,6.4013,6.3805,6.3807,6.3809,0,6.3216,6.3279,6.3314,6.335,6.3371,6.3429,6.3464,6.3452,6.3489,6.3531,6.3577,6.3634,6.3678,6.3774,6.3781,6.3831,6.3817,6.3897,6.3824,6.3827,6.3816,6.3811,6.3816,6.3911,6.3913,6.3915,6.3917,0,6.3403,6.3401,6.3453,6.3506,6.3548,6.3589,6.3625,6.3656,6.3648,6.369,6.3751,6.3786,6.3854,6.391,6.3957,6.3971,6.3942,6.394,6.3958,6.3963,6.3962,6.3962,6.3724,6.3934,6.3932,6.3931,6.393,6.3929,6.3538,6.3592,6.3625,6.3683,6.371,6.3745,6.3795,6.3805,6.3856,6.3912,6.3901,6.3969,6.3998,6.4059,6.4079,6.413,6.4101,6.4128,6.4135,6.4141,6.4149,6.3956,6.4139,6.4139,6.4138,6.4138,6.4137,0,6.3722,6.3741,6.3796,6.3849,6.3894,6.3866,6.3904,6.3944,6.4005,6.4035,6.408,6.4149,6.4203,6.4215,6.4266,6.4305,6.4293,6.4318,6.4314,6.4318,6.4173,6.4151,6.4328,6.4327,6.4327,6.4327,6.4327,6.4327,6.3823,6.3912,6.3913,6.4014,6.4032,6.41,6.4124,6.4155,6.418,6.4259,6.4305,6.4313,6.4335,6.4388,6.4435,6.4437,6.4456,6.4487,6.4483,6.4347,6.4328,6.431,6.4289,6.4492,6.4492,6.4624,6.4625,6.4626]}]]